Regional Weather Roundup
Issued by NWS Goodland, KS

Home | Current Version | Previous Version | Text Only | Print | Product List | Glossary Off
Versions: 1 2 3 4 5 6 7 8 9 10 11 12 13 14 15 16 17 18 19 20 21 22 23 24 25 26 27 28 29 30 31 32 33 34 35 36 37 38 39 40 41 42 43 44 45 46 47 48 49 50

000
ASUS43 KGLD 252008
RWRGLD

GOODLAND FORECAST AREA HOURLY WEATHER ROUNDUP
NATIONAL WEATHER SERVICE GOODLAND KS
200 PM MDT TUE APR 25 2017

...OFFICIAL OBSERVATIONS...

CITY           SKY/WX    TMP DP  RH WIND       PRES   REMARKS
GOODLAND KS    CLOUDY    61  39  44 N15G23    29.54F
HILL CITY KS   PTSUNNY   59  43  55 N16       29.55R
IMPERIAL NEB   PTSUNNY   51  44  77 NE12      29.58F
MCCOOK NEB     CLOUDY    50  43  77 N10       29.59R
AKRON CO       PTSUNNY   55  36  48 N10G20    29.57F
BURLINGTON CO  NOT AVBL
LIMON CO       LGT RAIN  51  32  48 VRB5      29.57R
$$

...UNOFFICIAL OBSERVATIONS...

CITY           SKY/WX    TMP DP  RH WIND       PRES   REMARKS
LENORA KS        N/A     53  32  45 MISG        N/A
NORTON KS      CLOUDY    48  37  66 N10       29.57R
SHARON SPRINGS   N/A     58  44  60 NE14G22     N/A
TRENTON NEB      N/A     48  32  54 N9          N/A
KIT CARSON CO    N/A     59  38  44 MISG        N/A
YUMA CO        CLOUDY    50  39  66 SW13      29.56S
$$




USA.gov is the U.S. government's official web portal to all federal, state and local government web resources and services.